Three Rivers, MI

10:02 AM EST on December 09, 2016 (GMT -0500)
Three Rivers Municipal-Haines

Weather History for KHAI - November, 2013

Change the Weather History Date:

Saturday, November 2, 2013

  Actual Average Record
Temperature  
Mean Temperature 45 °F -  
Max Temperature 49 °F 58 °F 77 °F (1950)
Min Temperature 41 °F 39 °F 22 °F (2014)
Degree Days  
Heating Degree Days 20    
Moisture  
Dew Point 41 °F    
Average Humidity 86    
Maximum Humidity 93    
Minimum Humidity 66    
Precipitation  
Precipitation 0.00 in - - ()
Sea Level Pressure  
Sea Level Pressure 29.85 in    
Wind  
Wind Speed 6 mph (WNW)    
Max Wind Speed 13 mph    
Max Gust Speed 20 mph    
Visibility 9 miles    
Events Rain    
Averages and records for this station are not official NWS values.
T = Trace of Precipitation, MM = Missing Value Source: NWS Daily Summary

Daily Weather History Graph

Daily Weather History Graph

Search for Another Location

Airport or City:

Trip Planner

Search our weather history database for the weather conditions in past years. The results will help you decide how hot, cold, wet, or windy it might be!

Date:

Astronomy

Nov. 02, 2013 Rise Set
Actual Time 8:16 AM EDT 6:34 PM EDT
Civil Twilight 7:47 AM EDT 7:03 PM EDT
Nautical Twilight 7:14 AM EDT 7:36 PM EDT
Astronomical Twilight 6:41 AM EDT 8:09 PM EDT
Moon 7:12 AM EDT (11/2) 6:06 PM EDT (11/2)
Length of Visible Light 11h 16m
Length of Day
10h 18m
Waning Crescent, 1% of the Moon is Illuminated
Nov 2
Waning Crescent
Nov 3
New
Nov 10
First Quarter
Nov 17
Full
Nov 25
Last Quarter

Hourly Weather History & Observations

Time (EDT) Temp. Windchill Dew Point Humidity Pressure Visibility Wind Dir Wind Speed Gust Speed Precip Events Conditions
12:15 AM 45.7 °F 43.4 °F 43.7 °F 93% 29.69 in 7.0 mi WSW 4.6 mph - N/A Rain Rain
12:35 AM 45.7 °F 43.4 °F 43.7 °F 93% 29.69 in 7.0 mi West 4.6 mph - N/A   Drizzle
12:54 AM 45.7 °F 42.7 °F 43.7 °F 93% 29.69 in 7.0 mi West 5.8 mph - N/A Rain Rain
1:15 AM 45.7 °F 42.7 °F 43.7 °F 93% 29.69 in 7.0 mi West 5.8 mph - N/A Rain Light Rain
1:35 AM 45.7 °F 43.4 °F 43.7 °F 93% 29.69 in 7.0 mi West 4.6 mph - N/A Rain Rain
1:55 AM 45.7 °F 43.4 °F 43.7 °F 93% 29.69 in 7.0 mi West 4.6 mph - N/A   Light Drizzle
2:15 AM 45.9 °F 42.9 °F 44.1 °F 93% 29.69 in 5.0 mi West 5.8 mph - N/A Rain Rain
2:34 AM 45.7 °F 41.5 °F 43.7 °F 93% 29.70 in 10.0 mi West 8.1 mph - N/A Rain Light Rain
2:55 AM 45.7 °F 42.7 °F 43.7 °F 93% 29.70 in 10.0 mi West 5.8 mph - N/A   Drizzle
3:15 AM 45.5 °F 41.8 °F 43.5 °F 93% 29.70 in 10.0 mi West 6.9 mph - N/A   Drizzle
3:35 AM 45.5 °F 42.5 °F 43.5 °F 93% 29.70 in 7.0 mi West 5.8 mph - N/A   Drizzle
3:55 AM 45.1 °F 42.8 °F 43.2 °F 93% 29.70 in 10.0 mi WSW 4.6 mph - N/A   Overcast
4:15 AM 45.1 °F 42.8 °F 43.2 °F 93% 29.70 in 10.0 mi WSW 4.6 mph - N/A   Overcast
4:35 AM 45.1 °F 43.7 °F 43.0 °F 92% 29.70 in 10.0 mi WSW 3.5 mph - N/A   Overcast
4:55 AM 45.5 °F 43.2 °F 43.2 °F 92% 29.70 in 10.0 mi WSW 4.6 mph - N/A   Overcast
5:15 AM 45.5 °F 42.5 °F 43.2 °F 92% 29.71 in 7.0 mi WSW 5.8 mph - N/A   Overcast
5:35 AM 45.5 °F 43.2 °F 43.0 °F 91% 29.71 in 10.0 mi WSW 4.6 mph - N/A   Overcast
5:54 AM 45.5 °F 41.8 °F 43.0 °F 91% 29.72 in 10.0 mi West 6.9 mph - N/A   Overcast
6:15 AM 45.5 °F 41.8 °F 42.8 °F 90% 29.72 in 7.0 mi West 6.9 mph - N/A   Light Drizzle
6:35 AM 45.3 °F 42.3 °F 42.8 °F 91% 29.73 in 5.0 mi West 5.8 mph - N/A Rain Light Rain
6:54 AM 45.5 °F 42.5 °F 43.0 °F 91% 29.74 in 7.0 mi West 5.8 mph - N/A   Overcast
7:15 AM 45.1 °F 41.4 °F 42.8 °F 91% 29.74 in 10.0 mi WNW 6.9 mph - N/A   Overcast
7:35 AM 45.1 °F 40.8 °F 42.8 °F 91% 29.75 in 7.0 mi WNW 8.1 mph - N/A Rain Rain
7:54 AM 45.1 °F 40.8 °F 42.8 °F 91% 29.75 in 7.0 mi West 8.1 mph - N/A   Overcast
8:15 AM 45.0 °F 42.6 °F 42.8 °F 92% 29.75 in 10.0 mi WNW 4.6 mph - N/A Rain Light Rain
8:35 AM 45.0 °F 42.6 °F 42.8 °F 92% 29.76 in 10.0 mi WNW 4.6 mph - N/A Rain Light Rain
8:55 AM 45.0 °F 43.5 °F 42.8 °F 92% 29.77 in 10.0 mi West 3.5 mph - N/A   Overcast
9:15 AM 45.1 °F 42.8 °F 43.0 °F 92% 29.78 in 10.0 mi West 4.6 mph - N/A   Overcast
9:35 AM 45.1 °F 42.8 °F 43.0 °F 92% 29.79 in 10.0 mi WNW 4.6 mph - N/A   Overcast
9:55 AM 45.5 °F 42.5 °F 43.2 °F 92% 29.79 in 7.0 mi WNW 5.8 mph - N/A   Overcast
10:15 AM 46.4 °F 42.9 °F 43.9 °F 91% 29.81 in 4.0 mi NNW 6.9 mph - N/A   Drizzle
10:35 AM 43.5 °F 38.9 °F 40.8 °F 90% 29.82 in 4.0 mi North 8.1 mph 16.1 mph N/A   Drizzle
10:55 AM 43.5 °F 40.1 °F 41.0 °F 91% 29.82 in 7.0 mi North 5.8 mph - N/A   Overcast
11:15 AM 44.6 °F 40.7 °F 41.4 °F 88% 29.83 in 10.0 mi North 6.9 mph - N/A   Overcast
11:34 AM 44.8 °F 40.4 °F 40.8 °F 86% 29.84 in 10.0 mi North 8.1 mph - N/A   Overcast
11:55 AM 45.9 °F 42.9 °F 41.4 °F 84% 29.85 in 10.0 mi North 5.8 mph - N/A   Overcast
12:15 PM 45.9 °F 42.9 °F 40.5 °F 81% 29.86 in 10.0 mi North 5.8 mph - N/A   Overcast
12:34 PM 46.2 °F 44.1 °F 40.1 °F 79% 29.86 in 10.0 mi NNW 4.6 mph - N/A   Overcast
12:55 PM 46.8 °F - 40.1 °F 78% 29.87 in 10.0 mi NNW 6.9 mph - N/A   Overcast
1:15 PM 47.3 °F - 40.3 °F 77% 29.87 in 10.0 mi North 4.6 mph - N/A   Overcast
1:34 PM 48.2 °F - 40.8 °F 76% 29.88 in 10.0 mi North 6.9 mph - N/A   Overcast
1:55 PM 48.6 °F - 39.7 °F 72% 29.87 in 10.0 mi NW 8.1 mph - N/A   Overcast
2:15 PM 49.1 °F - 39.9 °F 71% 29.88 in 10.0 mi NNW 8.1 mph - N/A   Overcast
2:35 PM 49.1 °F - 38.8 °F 68% 29.88 in 10.0 mi NW 8.1 mph - N/A   Overcast
2:55 PM 49.5 °F - 38.7 °F 66% 29.89 in 10.0 mi NW 9.2 mph - N/A   Overcast
3:14 PM 49.3 °F - 39.0 °F 68% 29.89 in 10.0 mi NW 8.1 mph - N/A   Overcast
3:35 PM 49.1 °F - 40.6 °F 73% 29.90 in 7.0 mi WNW 11.5 mph 17.3 mph N/A   Overcast
3:55 PM 48.4 °F - 42.3 °F 79% 29.90 in 7.0 mi NW 5.8 mph 9.2 mph N/A   Overcast
4:15 PM 47.3 °F - 41.0 °F 79% 29.91 in 10.0 mi NW 4.6 mph - N/A   Scattered Clouds
4:35 PM 48.0 °F - 40.6 °F 76% 29.92 in 10.0 mi WNW 9.2 mph - N/A   Scattered Clouds
4:54 PM 48.2 °F - 39.4 °F 72% 29.93 in 10.0 mi NW 10.4 mph - N/A   Scattered Clouds
5:15 PM 48.2 °F - 40.1 °F 74% 29.94 in 10.0 mi NNW 6.9 mph - N/A   Mostly Cloudy
5:35 PM 49.3 °F - 40.3 °F 71% 29.94 in 10.0 mi WNW 12.7 mph - N/A   Mostly Cloudy
5:54 PM 48.2 °F - 37.9 °F 68% 29.95 in 10.0 mi WNW 10.4 mph 19.6 mph N/A   Mostly Cloudy
6:15 PM 46.4 °F 44.3 °F 38.7 °F 74% 29.96 in 10.0 mi NNW 4.6 mph 18.4 mph N/A Rain Light Rain
6:35 PM 45.5 °F 41.8 °F 39.2 °F 79% 29.97 in 10.0 mi WNW 6.9 mph - N/A   Overcast
6:54 PM 44.6 °F 40.7 °F 38.5 °F 79% 29.98 in 10.0 mi West 6.9 mph - N/A   Mostly Cloudy
7:15 PM 43.2 °F 39.0 °F 37.9 °F 82% 29.98 in 10.0 mi West 6.9 mph - N/A   Scattered Clouds
7:35 PM 43.0 °F 38.8 °F 38.3 °F 84% 30.00 in 10.0 mi West 6.9 mph - N/A   Mostly Cloudy
7:54 PM 43.7 °F 39.7 °F 39.6 °F 85% 30.01 in 10.0 mi WNW 6.9 mph - N/A Rain Light Rain
8:15 PM 43.9 °F 41.3 °F 39.9 °F 86% 30.02 in 10.0 mi WNW 4.6 mph - N/A   Light Drizzle
8:34 PM 44.1 °F - 40.1 °F 86% 30.03 in 5.0 mi Calm Calm - N/A Rain Light Rain
8:55 PM 43.3 °F - 40.1 °F 88% 30.04 in 10.0 mi Calm Calm - N/A   Drizzle
9:15 PM 44.2 °F - 41.0 °F 88% 30.04 in 10.0 mi Calm Calm - N/A   Overcast
9:34 PM 44.2 °F 42.7 °F 40.8 °F 88% 30.05 in 10.0 mi NW 3.5 mph - N/A Rain Rain
9:55 PM 44.4 °F - 41.5 °F 90% 30.05 in 5.0 mi Calm Calm - N/A Rain Rain
10:15 PM 43.9 °F 41.3 °F 41.2 °F 90% 30.07 in 7.0 mi West 4.6 mph - N/A   Light Drizzle
10:35 PM 43.9 °F - 41.4 °F 91% 30.07 in 10.0 mi Calm Calm - N/A   Overcast
10:55 PM 41.9 °F 36.9 °F 38.8 °F 89% 30.08 in 1.8 mi NE 8.1 mph - N/A   Unknown
11:15 PM 42.8 °F 40.1 °F 40.1 °F 90% 30.08 in 7.0 mi ENE 4.6 mph - N/A Rain Light Rain
11:35 PM 42.4 °F 39.6 °F 40.1 °F 91% 30.09 in 10.0 mi ENE 4.6 mph - N/A   Overcast
11:55 PM 42.4 °F 40.7 °F 40.1 °F 91% 30.09 in 10.0 mi ENE 3.5 mph - N/A   Overcast